Location: Nelson
(41.2830°S, 173.2830°E)
Time: 07:52:00
(UTC+12:00)

ISS - Pass Details

Date: 15 May 2025
Orbit: 415 x 416 km, 51.6° (Epoch: 16 June)

Event Time Altitude Azimuth Distance (km) Brightness Sun altitude
Rises 06:30:45 0° 329° (NNW) 2,363 -0.1 -10.9°
Reaches altitude 10° 06:32:57 10° 338° (NNW) 1,507 -1.0 -10.5°
Maximum altitude 06:36:01 33° 44° (NE) 742 -1.8 -10.0°
Drops below altitude 10° 06:39:09 10° 109° (ESE) 1,527 0.0 -9.4°
Sets 06:41:23 0° 119° (ESE) 2,401 0.8 -9.0°
